When you browse on this site, cookies collect data to enhance your experience and personalize the content and advertising you see.
Visit our Privacy Policy to learn more. By continuing to use the site, you agree to this use of cookies and data.
  • In Hungary
  • List of Countries
  • For 7 days
  • Water Temperature
  • Satellite Maps
  • Weather Map
  • News
  • Weather Widgets
  • user-avatar
    Login

    Hourly Weather Franceville

    Today, 20 January, Sunday

    Time Temperature Precipitation Wind Pressure Humidity
    00:00 +26°C° 0.2 mm 1 mps 732 mmHg 84%
    01:00 +23°C° 0 mm 0 mps 733 mmHg 88%
    02:00 +23°C° 0 mm 0 mps 732 mmHg 89%
    03:00 +23°C° 0 mm 0 mps 732 mmHg 90%
    04:00 +23°C° 0 mm 0 mps 732 mmHg 91%
    05:00 +23°C° 0 mm 0 mps 732 mmHg 90%
    06:00 +23°C° 0 mm 0 mps 732 mmHg 90%
    07:00 +23°C° 0 mm 0 mps 733 mmHg 89%
    08:00 +26°C° 0 mm 0 mps 733 mmHg 78%
    09:00 +30°C° 0 mm 1 mps 733 mmHg 68%
    10:00 +32°C° 0 mm 1 mps 733 mmHg 57%
    11:00 +34°C° 0 mm 1 mps 733 mmHg 51%
    12:00 +36°C° 0 mm 1 mps 732 mmHg 44%
    13:00 +37°C° 0 mm 0 mps 731 mmHg 36%
    14:00 +39°C° 0 mm 1 mps 731 mmHg 36%
    15:00 +37°C° 0 mm 1 mps 731 mmHg 35%
    16:00 +37°C° 0 mm 1 mps 730 mmHg 35%
    17:00 +35°C° 0 mm 1 mps 730 mmHg 43%
    18:00 +33°C° 0 mm 1 mps 730 mmHg 51%
    19:00 +30°C° 0 mm 1 mps 731 mmHg 59%
    20:00 +30°C° 0 mm 1 mps 731 mmHg 63%
    21:00 +29°C° 0 mm 1 mps 732 mmHg 67%
    22:00 +28°C° 0 mm 1 mps 732 mmHg 71%
    23:00 +27°C° 0.2 mm 1 mps 732 mmHg 76%

    Tomorrow, 21 January, Monday

    Time Temperature Precipitation Wind Pressure Humidity
    00:00 +27°C° 0.2 mm 1 mps 732 mmHg 80%
    01:00 +26°C° 0.2 mm 1 mps 732 mmHg 85%
    02:00 +26°C° 0.1 mm 1 mps 732 mmHg 86%
    03:00 +24°C° 0.1 mm 0 mps 732 mmHg 87%
    04:00 +23°C° 0.1 mm 0 mps 732 mmHg 88%
    05:00 +23°C° 0.2 mm 0 mps 733 mmHg 89%
    06:00 +23°C° 0.2 mm 0 mps 733 mmHg 89%
    07:00 +23°C° 0.2 mm 0 mps 733 mmHg 89%
    08:00 +24°C° 0.7 mm 0 mps 733 mmHg 86%
    09:00 +25°C° 0.7 mm 0 mps 733 mmHg 83%
    10:00 +26°C° 0.7 mm 0 mps 734 mmHg 81%
    11:00 +26°C° 0 mm 0 mps 733 mmHg 78%
    12:00 +27°C° 0 mm 0 mps 732 mmHg 74%
    13:00 +30°C° 0 mm 1 mps 731 mmHg 71%
    14:00 +31°C° 0 mm 1 mps 731 mmHg 64%
    15:00 +32°C° 0 mm 1 mps 730 mmHg 58%
    16:00 +33°C° 0 mm 1 mps 729 mmHg 51%
    17:00 +32°C° 0 mm 1 mps 730 mmHg 58%
    18:00 +30°C° 0 mm 1 mps 730 mmHg 66%
    19:00 +28°C° 0 mm 1 mps 730 mmHg 74%
    20:00 +27°C° 0.2 mm 1 mps 731 mmHg 76%
    21:00 +27°C° 0.2 mm 1 mps 731 mmHg 78%
    22:00 +24°C° 0.2 mm 0 mps 732 mmHg 80%
    23:00 +24°C° 0.7 mm 0 mps 732 mmHg 83%

    Day after tomorrow, 22 January, Tuesday

    Time Temperature Precipitation Wind Pressure Humidity
    00:00 +25°C° 0.7 mm 1 mps 732 mmHg 86%
    01:00 +25°C° 0.7 mm 1 mps 732 mmHg 89%
    02:00 +25°C° 0.1 mm 1 mps 731 mmHg 90%
    03:00 +25°C° 0.1 mm 1 mps 731 mmHg 91%
    04:00 +25°C° 0.1 mm 1 mps 731 mmHg 92%
    05:00 +25°C° 0 mm 1 mps 731 mmHg 92%
    06:00 +25°C° 0 mm 1 mps 731 mmHg 93%
    07:00 +25°C° 0 mm 1 mps 732 mmHg 93%
    08:00 +27°C° 0 mm 1 mps 732 mmHg 83%
    09:00 +29°C° 0 mm 1 mps 732 mmHg 74%
    10:00 +31°C° 0 mm 2 mps 733 mmHg 65%
    11:00 +33°C° 0 mm 1 mps 732 mmHg 57%
    12:00 +35°C° 0 mm 1 mps 731 mmHg 50%
    13:00 +37°C° 0 mm 1 mps 731 mmHg 42%
    14:00 +36°C° 0 mm 1 mps 730 mmHg 43%
    15:00 +36°C° 0 mm 1 mps 729 mmHg 43%
    16:00 +35°C° 0 mm 1 mps 729 mmHg 44%
    17:00 +33°C° 0.5 mm 1 mps 729 mmHg 57%
    18:00 +30°C° 0.5 mm 1 mps 729 mmHg 70%
    19:00 +27°C° 0.5 mm 2 mps 730 mmHg 82%
    20:00 +27°C° 0.4 mm 1 mps 730 mmHg 84%
    21:00 +27°C° 0.4 mm 1 mps 731 mmHg 85%
    22:00 +26°C° 0.4 mm 1 mps 732 mmHg 86%
    23:00 +26°C° 0.3 mm 1 mps 732 mmHg 88%

    23 January, Wednesday

    Time Temperature Precipitation Wind Pressure Humidity
    00:00 +25°C° 0.3 mm 1 mps 731 mmHg 90%
    01:00 +25°C° 0.3 mm 1 mps 731 mmHg 93%
    02:00 +25°C° 0 mm 1 mps 731 mmHg 94%
    03:00 +24°C° 0 mm 1 mps 731 mmHg 95%
    04:00 +24°C° 0 mm 1 mps 731 mmHg 96%
    05:00 +24°C° 0 mm 1 mps 731 mmHg 95%
    06:00 +24°C° 0 mm 1 mps 731 mmHg 94%
    07:00 +25°C° 0 mm 1 mps 732 mmHg 93%
    08:00 +26°C° 0 mm 2 mps 732 mmHg 85%
    09:00 +28°C° 0 mm 2 mps 732 mmHg 77%
    10:00 +30°C° 0 mm 2 mps 733 mmHg 68%
    11:00 +31°C° 0 mm 2 mps 732 mmHg 62%
    12:00 +34°C° 0 mm 2 mps 732 mmHg 56%
    13:00 +35°C° 0 mm 2 mps 731 mmHg 50%
    14:00 +34°C° 0 mm 1 mps 730 mmHg 50%
    15:00 +34°C° 0 mm 1 mps 730 mmHg 50%
    16:00 +34°C° 0 mm 1 mps 729 mmHg 49%
    17:00 +33°C° 0 mm 1 mps 729 mmHg 57%
    18:00 +31°C° 0 mm 1 mps 730 mmHg 64%
    19:00 +29°C° 0 mm 1 mps 730 mmHg 71%
    20:00 +28°C° 0 mm 1 mps 730 mmHg 75%
    21:00 +28°C° 0 mm 1 mps 731 mmHg 79%
    22:00 +27°C° 0 mm 1 mps 731 mmHg 82%
    23:00 +27°C° 0 mm 1 mps 731 mmHg 85%

    24 January, Thursday

    Time Temperature Precipitation Wind Pressure Humidity
    00:00 +26°C° 0 mm 1 mps 731 mmHg 88%
    01:00 +23°C° 0 mm 0 mps 731 mmHg 90%
    02:00 +23°C° 0 mm 0 mps 730 mmHg 91%
    03:00 +23°C° 0 mm 0 mps 730 mmHg 92%
    04:00 +23°C° 0 mm 0 mps 730 mmHg 93%
    05:00 +23°C° 0 mm 0 mps 730 mmHg 92%
    06:00 +25°C° 0 mm 1 mps 730 mmHg 91%
    07:00 +25°C° 0 mm 1 mps 731 mmHg 90%
    08:00 +28°C° 0 mm 1 mps 731 mmHg 77%
    09:00 +30°C° 0 mm 1 mps 731 mmHg 64%
    10:00 +34°C° 0 mm 2 mps 732 mmHg 50%
    11:00 +35°C° 0 mm 1 mps 731 mmHg 44%
    12:00 +36°C° 0 mm 1 mps 730 mmHg 38%
    13:00 +39°C° 0 mm 1 mps 730 mmHg 33%
    14:00 +39°C° 0 mm 1 mps 729 mmHg 33%
    15:00 +37°C° 0 mm 1 mps 728 mmHg 34%
    16:00 +37°C° 0 mm 1 mps 727 mmHg 35%
    17:00 +35°C° 0 mm 1 mps 728 mmHg 42%
    18:00 +33°C° 0 mm 1 mps 728 mmHg 49%
    19:00 +31°C° 0 mm 1 mps 728 mmHg 56%
    20:00 +30°C° 0.2 mm 1 mps 729 mmHg 63%
    21:00 +29°C° 0.2 mm 1 mps 729 mmHg 69%
    22:00 +27°C° 0.2 mm 1 mps 730 mmHg 76%
    23:00 +27°C° 0.1 mm 1 mps 730 mmHg 79%

    25 January, Friday

    Time Temperature Precipitation Wind Pressure Humidity
    00:00 +26°C° 0.1 mm 1 mps 730 mmHg 83%
    01:00 +24°C° 0.1 mm 0 mps 730 mmHg 86%
    02:00 +24°C° 0.1 mm 0 mps 730 mmHg 87%
    03:00 +24°C° 0.1 mm 0 mps 730 mmHg 89%
    04:00 +24°C° 0.1 mm 0 mps 730 mmHg 90%
    05:00 +24°C° 0 mm 0 mps 730 mmHg 90%
    06:00 +24°C° 0 mm 0 mps 731 mmHg 91%
    07:00 +24°C° 0 mm 0 mps 731 mmHg 91%
    08:00 +26°C° 0 mm 0 mps 732 mmHg 80%
    09:00 +30°C° 0 mm 1 mps 732 mmHg 70%
    10:00 +32°C° 0 mm 1 mps 732 mmHg 60%
    11:00 +33°C° 0 mm 1 mps 731 mmHg 56%
    12:00 +34°C° 0 mm 1 mps 731 mmHg 51%
    13:00 +35°C° 0 mm 1 mps 730 mmHg 47%
    14:00 +35°C° 0 mm 1 mps 729 mmHg 47%
    15:00 +35°C° 0 mm 1 mps 729 mmHg 47%
    16:00 +35°C° 0 mm 1 mps 728 mmHg 47%
    17:00 +33°C° 1.3 mm 1 mps 728 mmHg 59%
    18:00 +30°C° 1.3 mm 1 mps 729 mmHg 71%
    19:00 +28°C° 1.3 mm 1 mps 729 mmHg 83%
    20:00 +27°C° 0.5 mm 1 mps 730 mmHg 84%
    21:00 +27°C° 0.5 mm 1 mps 730 mmHg 85%
    22:00 +27°C° 0.5 mm 1 mps 731 mmHg 86%
    23:00 +26°C° 0 mm 1 mps 731 mmHg 86%
    Show more